Location: Unspecified
(0.0000°N, 0.0000°E)
Time: 03:12:09
(UTC+00:00)

Hubble Space Telescope - Pass Details

Date: 03 February 2023
Orbit: 529 x 532 km, 28.5° (Epoch: 27 January)

Event Time Altitude Azimuth Distance (km) Brightness Sun altitude
Rises 20:04:25 0° 242° (WSW) 2,652 5.6 -26.4°
Reaches altitude 10° 20:06:40 10° 243° (WSW) 1,761 4.4 -27.0°
Enters shadow 20:09:21 39° 251° (WSW) 788 2.0 -27.6°
